TimeCST,TemperatureF,Dew PointF,Humidity,Sea Level PressureIn,VisibilityMPH,Wind Direction,Wind SpeedMPH,Gust SpeedMPH,PrecipitationIn,Events,Conditions,WindDirDegrees,DateUTC
12:53 AM,61.0,55.9,83,29.63,9.0,SSE,16.1,-,N/A,,Overcast,160,2014-02-20 06:53:00
1:53 AM,61.0,55.9,83,29.60,9.0,South,17.3,-,N/A,,Overcast,170,2014-02-20 07:53:00
2:53 AM,62.1,55.9,80,29.58,10.0,South,12.7,20.7,N/A,,Overcast,170,2014-02-20 08:53:00
3:53 AM,63.0,55.9,78,29.55,10.0,South,12.7,-,N/A,,Overcast,170,2014-02-20 09:53:00
4:53 AM,63.0,55.0,75,29.53,10.0,South,15.0,24.2,N/A,,Overcast,180,2014-02-20 10:53:00
5:53 AM,63.0,55.9,78,29.52,10.0,South,18.4,33.4,N/A,,Overcast,180,2014-02-20 11:53:00
6:53 AM,63.0,55.9,78,29.50,10.0,SSW,19.6,31.1,N/A,,Overcast,200,2014-02-20 12:53:00
7:53 AM,64.0,55.9,75,29.50,10.0,SSW,16.1,34.5,N/A,,Mostly Cloudy,210,2014-02-20 13:53:00
8:19 AM,64.4,55.4,73,29.53,10.0,SSW,18.4,35.7,N/A,,Mostly Cloudy,200,2014-02-20 14:19:00
8:53 AM,66.9,54.0,63,29.51,10.0,SSW,12.7,26.5,N/A,,Mostly Cloudy,200,2014-02-20 14:53:00
9:53 AM,66.9,54.0,63,29.51,10.0,SSW,18.4,29.9,N/A,,Overcast,210,2014-02-20 15:53:00
10:53 AM,68.0,53.1,59,29.49,10.0,SSW,13.8,29.9,N/A,,Clear,210,2014-02-20 16:53:00
11:53 AM,73.0,46.9,39,29.50,10.0,SW,18.4,34.5,N/A,,Partly Cloudy,230,2014-02-20 17:53:00
12:53 PM,73.0,41.0,31,29.49,10.0,WSW,18.4,39.1,N/A,,Clear,250,2014-02-20 18:53:00
1:53 PM,63.0,34.0,34,29.58,10.0,West,27.6,43.7,N/A,,Clear,270,2014-02-20 19:53:00
2:53 PM,51.1,35.1,54,29.68,10.0,West,15.0,33.4,N/A,,Overcast,270,2014-02-20 20:53:00
3:53 PM,46.9,32.0,56,29.76,10.0,WNW,17.3,28.8,N/A,,Overcast,290,2014-02-20 21:53:00
4:53 PM,45.0,28.9,53,29.83,10.0,WNW,15.0,31.1,N/A,,Overcast,290,2014-02-20 22:53:00
5:53 PM,44.1,28.9,55,29.86,10.0,WNW,15.0,26.5,N/A,,Mostly Cloudy,290,2014-02-20 23:53:00
6:53 PM,42.1,28.0,58,29.88,10.0,WNW,8.1,-,N/A,,Clear,300,2014-02-21 00:53:00
7:53 PM,41.0,27.0,57,29.90,10.0,West,5.8,-,N/A,,Clear,270,2014-02-21 01:53:00
8:53 PM,39.9,26.1,58,29.90,10.0,Variable,5.8,-,N/A,,Clear,0,2014-02-21 02:53:00
9:53 PM,42.1,25.0,51,29.89,10.0,WSW,10.4,18.4,N/A,,Clear,250,2014-02-21 03:53:00
10:53 PM,43.0,19.0,38,29.89,10.0,West,11.5,20.7,N/A,,Clear,270,2014-02-21 04:53:00
11:53 PM,43.0,17.1,35,29.90,10.0,West,12.7,26.5,N/A,,Clear,280,2014-02-21 05:53:00